Terminal Aerodrome Forecast
Issued by NWS

Home | Current Version | Previous Version | Text Only | Print | Product List | Glossary On
Versions: 1 2 3 4 5 6 7 8 9 10 11 12 13 14
000
FTUS44 KMAF 031127
TAFPEQ
TAF
KPEQ 031127Z 0312/0412 10007KT P6SM SCT200
     FM031700 10011G19KT P6SM SKC
     FM040200 12009KT P6SM SCT200=

USA.gov is the U.S. government's official web portal to all federal, state and local government web resources and services.